User: anonymous   Login
Location: Oshawa
(43.9000°N, 78.8670°W)
Time: 07:54:56
(UTC-04:00)
Language:

Cosmos 1821 Rocket - Orbit

View from above orbital plane
View from above orbital plane
View from above satellite
View from above satellite

Ground track
Ground track

The orbit data is extracted from the following two-line orbital elements,

1 17526U 87017B   16176.87368706 -.00000005 +00000-0 -20235-4 0  9993
2 17526 082.9028 307.2202 0039289 234.9833 236.0540 13.76787366456921
Epoch (UTC): 24 June 2016 20:58:06
Eccentricity: 0.0039289
inclination: 82.9028°
perigee height: 946 km
apogee height: 1004 km
right ascension of ascending node: 307.2202°
argument of perigee: 234.9833°
revolutions per day: 13.76787366
mean anomaly at epoch: 236.0540°
orbit number at epoch: 45692

The dashed part of the orbit path shows where the satellite is in the earth's shadow,  

DLR